• In Hungary
  • List of Countries
  • For 7 days
  • Water Temperature
  • Satellite Maps
  • Weather Map
  • News
  • Weather Widgets
  • user-avatar
    Login

    Hourly Weather Mayrhofen

    Today, 15 November, Thursday

    Time Temperature Precipitation Wind Pressure Humidity
    00:00 +2°C° 0 mm 1 mps 621 mmHg 60%
    01:00 +2°C° 0 mm 1 mps 622 mmHg 56%
    02:00 +2°C° 0 mm 1 mps 621 mmHg 55%
    03:00 +2°C° 0 mm 1 mps 621 mmHg 54%
    04:00 +2°C° 0 mm 1 mps 621 mmHg 53%
    05:00 +1°C° 0 mm 1 mps 621 mmHg 52%
    06:00 +1°C° 0 mm 1 mps 621 mmHg 52%
    07:00 +1°C° 0 mm 1 mps 621 mmHg 51%
    08:00 +4°C° 0 mm 1 mps 621 mmHg 48%
    09:00 +6°C° 0 mm 1 mps 622 mmHg 45%
    10:00 +7°C° 0 mm 0 mps 623 mmHg 42%
    11:00 +9°C° 0 mm 1 mps 623 mmHg 40%
    12:00 +10°C° 0 mm 1 mps 623 mmHg 38%
    13:00 +10°C° 0 mm 1 mps 623 mmHg 37%
    14:00 +9°C° 0 mm 1 mps 622 mmHg 45%
    15:00 +6°C° 0 mm 0 mps 621 mmHg 53%
    16:00 +5°C° 0 mm 0 mps 621 mmHg 62%
    17:00 +4°C° 0 mm 0 mps 620 mmHg 64%
    18:00 +3°C° 0 mm 0 mps 620 mmHg 66%
    19:00 +2°C° 0 mm 0 mps 620 mmHg 68%
    20:00 +2°C° 0 mm 1 mps 620 mmHg 66%
    21:00 +2°C° 0 mm 1 mps 620 mmHg 65%
    22:00 +2°C° 0 mm 1 mps 620 mmHg 63%
    23:00 +2°C° 0 mm 1 mps 620 mmHg 61%

    Tomorrow, 16 November, Friday

    Time Temperature Precipitation Wind Pressure Humidity
    00:00 +2°C° 0 mm 1 mps 620 mmHg 59%
    01:00 +2°C° 0 mm 1 mps 620 mmHg 57%
    02:00 +2°C° 0 mm 1 mps 620 mmHg 55%
    03:00 +1°C° 0 mm 1 mps 620 mmHg 53%
    04:00 +1°C° 0 mm 1 mps 620 mmHg 51%
    05:00 +1°C° 0 mm 1 mps 620 mmHg 51%
    06:00 +1°C° 0 mm 1 mps 620 mmHg 50%
    07:00 0°C° 0 mm 1 mps 620 mmHg 49%
    08:00 +2°C° 0 mm 1 mps 621 mmHg 47%
    09:00 +4°C° 0 mm 1 mps 621 mmHg 45%
    10:00 +5°C° 0 mm 1 mps 622 mmHg 44%
    11:00 +6°C° 0 mm 1 mps 622 mmHg 43%
    12:00 +6°C° 0 mm 1 mps 622 mmHg 42%
    13:00 +7°C° 0 mm 1 mps 622 mmHg 42%
    14:00 +5°C° 0 mm 1 mps 621 mmHg 51%
    15:00 +4°C° 0 mm 1 mps 621 mmHg 59%
    16:00 +3°C° 0 mm 1 mps 620 mmHg 68%
    17:00 +2°C° 0 mm 1 mps 620 mmHg 74%
    18:00 0°C° 0 mm 1 mps 620 mmHg 80%
    19:00 -1°C° 0 mm 1 mps 620 mmHg 86%
    20:00 -1°C° 0 mm 1 mps 620 mmHg 86%
    21:00 -1°C° 0 mm 1 mps 620 mmHg 87%
    22:00 -3°C° 0 mm 2 mps 620 mmHg 88%
    23:00 -3°C° 0 mm 2 mps 620 mmHg 88%

    Day after tomorrow, 17 November, Saturday

    Time Temperature Precipitation Wind Pressure Humidity
    00:00 -3°C° 0 mm 2 mps 620 mmHg 88%
    01:00 -3°C° 0 mm 2 mps 620 mmHg 88%
    02:00 -4°C° 0 mm 2 mps 620 mmHg 88%
    03:00 -4°C° 0 mm 2 mps 620 mmHg 87%
    04:00 -4°C° 0 mm 2 mps 619 mmHg 86%
    05:00 -4°C° 0 mm 2 mps 619 mmHg 85%
    06:00 -4°C° 0 mm 2 mps 619 mmHg 83%
    07:00 -5°C° 0 mm 2 mps 619 mmHg 82%
    08:00 -3°C° 0 mm 2 mps 620 mmHg 73%
    09:00 -2°C° 0 mm 2 mps 620 mmHg 64%
    10:00 +1°C° 0 mm 2 mps 621 mmHg 55%
    11:00 +2°C° 0 mm 2 mps 621 mmHg 50%
    12:00 +2°C° 0 mm 2 mps 621 mmHg 45%
    13:00 +3°C° 0 mm 2 mps 621 mmHg 40%
    14:00 +2°C° 0 mm 2 mps 620 mmHg 44%
    15:00 +1°C° 0 mm 2 mps 620 mmHg 48%
    16:00 +1°C° 0 mm 1 mps 619 mmHg 52%
    17:00 -2°C° 0 mm 2 mps 619 mmHg 55%
    18:00 -3°C° 0 mm 2 mps 619 mmHg 59%
    19:00 -4°C° 0 mm 2 mps 618 mmHg 62%
    20:00 -4°C° 0 mm 2 mps 619 mmHg 61%
    21:00 -2°C° 0 mm 1 mps 619 mmHg 60%
    22:00 -3°C° 0 mm 1 mps 619 mmHg 60%
    23:00 -3°C° 0 mm 1 mps 618 mmHg 59%

    18 November, Sunday

    Time Temperature Precipitation Wind Pressure Humidity
    00:00 -3°C° 0 mm 1 mps 618 mmHg 58%
    01:00 -3°C° 0 mm 1 mps 618 mmHg 57%
    02:00 -3°C° 0 mm 1 mps 618 mmHg 56%
    03:00 -4°C° 0 mm 1 mps 617 mmHg 55%
    04:00 -4°C° 0 mm 1 mps 617 mmHg 54%
    05:00 -4°C° 0 mm 1 mps 617 mmHg 54%
    06:00 -4°C° 0 mm 1 mps 617 mmHg 53%
    07:00 -6°C° 0 mm 2 mps 617 mmHg 53%
    08:00 -5°C° 0 mm 2 mps 617 mmHg 49%
    09:00 -3°C° 0 mm 2 mps 618 mmHg 44%
    10:00 -2°C° 0 mm 2 mps 618 mmHg 39%
    11:00 -1°C° 0 mm 2 mps 618 mmHg 37%
    12:00 +2°C° 0 mm 1 mps 618 mmHg 35%
    13:00 +3°C° 0 mm 1 mps 618 mmHg 32%
    14:00 +2°C° 0 mm 1 mps 617 mmHg 37%
    15:00 +1°C° 0 mm 1 mps 617 mmHg 42%
    16:00 -1°C° 0 mm 0 mps 616 mmHg 47%
    17:00 -2°C° 0 mm 0 mps 615 mmHg 50%
    18:00 -3°C° 0 mm 0 mps 615 mmHg 53%
    19:00 -4°C° 0 mm 0 mps 614 mmHg 56%
    20:00 -3°C° 0 mm 1 mps 614 mmHg 57%
    21:00 -4°C° 0 mm 1 mps 614 mmHg 58%
    22:00 -4°C° 0 mm 1 mps 614 mmHg 59%
    23:00 -4°C° 0 mm 1 mps 613 mmHg 60%

    19 November, Monday

    Time Temperature Precipitation Wind Pressure Humidity
    00:00 -4°C° 0 mm 1 mps 613 mmHg 62%
    01:00 -4°C° 0 mm 1 mps 612 mmHg 63%
    02:00 -4°C° 0 mm 1 mps 612 mmHg 66%
    03:00 -6°C° 0 mm 1 mps 612 mmHg 69%
    04:00 -6°C° 0 mm 1 mps 611 mmHg 72%
    05:00 -6°C° 0 mm 1 mps 611 mmHg 75%
    06:00 -6°C° 0 mm 1 mps 611 mmHg 78%
    07:00 -7°C° 0 mm 1 mps 610 mmHg 82%
    08:00 -6°C° 0 mm 1 mps 611 mmHg 78%
    09:00 -4°C° 0 mm 1 mps 611 mmHg 74%
    10:00 -3°C° 0 mm 1 mps 611 mmHg 70%
    11:00 -3°C° 0.1 mm 1 mps 611 mmHg 69%
    12:00 -3°C° 0.1 mm 1 mps 610 mmHg 67%
    13:00 -2°C° 0.1 mm 1 mps 610 mmHg 66%
    14:00 -3°C° 0.2 mm 1 mps 610 mmHg 70%
    15:00 -3°C° 0.2 mm 1 mps 609 mmHg 74%
    16:00 -4°C° 0.2 mm 1 mps 609 mmHg 78%
    17:00 -4°C° 0.2 mm 1 mps 609 mmHg 81%
    18:00 -6°C° 0.2 mm 1 mps 608 mmHg 84%
    19:00 -6°C° 0.2 mm 1 mps 608 mmHg 87%
    20:00 -6°C° 0.2 mm 1 mps 608 mmHg 88%
    21:00 -7°C° 0.2 mm 1 mps 608 mmHg 88%
    22:00 -7°C° 0.2 mm 1 mps 608 mmHg 88%
    23:00 -7°C° 0.1 mm 1 mps 608 mmHg 88%

    20 November, Tuesday

    Time Temperature Precipitation Wind Pressure Humidity
    00:00 -7°C° 0.1 mm 1 mps 607 mmHg 88%
    01:00 -7°C° 0.1 mm 1 mps 607 mmHg 88%
    02:00 -8°C° 0 mm 1 mps 607 mmHg 88%
    03:00 -8°C° 0 mm 1 mps 606 mmHg 88%
    04:00 -8°C° 0 mm 1 mps 606 mmHg 88%
    05:00 -8°C° 0 mm 1 mps 605 mmHg 88%
    06:00 -9°C° 0 mm 1 mps 605 mmHg 87%
    07:00 -9°C° 0 mm 1 mps 605 mmHg 87%
    08:00 -8°C° 0 mm 1 mps 605 mmHg 80%
    09:00 -7°C° 0 mm 1 mps 605 mmHg 73%
    10:00 -4°C° 0 mm 1 mps 605 mmHg 66%
    11:00 -4°C° 0 mm 1 mps 605 mmHg 64%
    12:00 -3°C° 0 mm 1 mps 604 mmHg 61%
    13:00 -2°C° 0 mm 1 mps 604 mmHg 59%
    14:00 -3°C° 0.1 mm 1 mps 604 mmHg 65%
    15:00 -3°C° 0.1 mm 1 mps 603 mmHg 70%
    16:00 -4°C° 0.1 mm 1 mps 603 mmHg 76%
    17:00 -4°C° 0.1 mm 1 mps 602 mmHg 80%
    18:00 -6°C° 0.1 mm 1 mps 602 mmHg 84%
    19:00 -6°C° 0.1 mm 1 mps 602 mmHg 87%
    20:00 -7°C° 0.1 mm 1 mps 601 mmHg 87%
    21:00 -7°C° 0.1 mm 1 mps 601 mmHg 88%
    22:00 -7°C° 0.1 mm 1 mps 601 mmHg 88%
    23:00 -7°C° 0.3 mm 1 mps 601 mmHg 88%
    Show more